Dates,A_C.3_60_L.54-ES,A_C.3_60_L.54-ZH,A_C.3_60_L.54-FR,A_C.3_60_L.54-RU,A_C.3_60_L.54-AR,A_C.3_60_L.54-EN
2023-06-10,1,0,0,0,0,0
2023-06-11,0,0,0,0,0,0
2023-06-12,0,0,0,0,0,0
2023-06-13,0,0,0,0,0,0
2023-06-14,0,0,0,0,0,0
2023-06-15,0,0,0,0,0,0
2023-06-16,0,0,0,0,0,0
2023-06-17,0,0,0,0,0,0
2023-06-18,0,0,0,0,0,0
2023-06-19,0,0,0,0,0,0
2023-06-20,0,0,0,0,0,0
2023-06-21,0,0,0,0,0,0
2023-06-22,0,0,0,0,0,0
2023-06-23,0,0,0,0,0,0
2023-06-24,0,0,0,0,0,0
2023-06-25,0,0,0,0,0,0
2023-06-26,0,0,0,0,0,0
2023-06-27,0,0,0,0,0,0
2023-06-28,0,0,0,0,0,1
2023-06-29,0,0,0,0,0,0
2023-06-30,0,0,0,0,0,0
2023-07-01,0,0,0,0,0,0
2023-07-02,0,0,0,0,0,0
2023-07-03,0,0,0,0,0,0
2023-07-04,0,0,0,0,0,1
2023-07-05,0,0,0,0,0,0
2023-07-06,0,0,0,0,0,0
2023-07-07,0,0,0,0,0,0
2023-07-08,0,0,0,0,0,0
2023-07-09,0,0,0,0,0,0
2023-07-10,0,0,0,1,1,1
2023-07-11,0,0,0,0,0,1
2023-07-12,0,0,0,1,0,0
2023-07-13,0,0,0,0,0,0
2023-07-14,0,0,0,0,0,0
2023-07-15,0,0,0,0,0,0
2023-07-16,0,0,0,0,0,0
2023-07-17,0,0,0,0,0,0
2023-07-18,0,0,0,0,0,0
2023-07-19,0,0,0,0,0,0
2023-07-20,0,0,0,0,0,0
2023-07-21,0,0,0,0,0,0
2023-07-22,0,0,0,0,0,0
2023-07-23,0,0,0,0,0,0
2023-07-24,0,0,0,0,1,0
2023-07-25,0,0,0,0,0,0
2023-07-26,0,0,0,0,0,0
2023-07-27,0,0,0,0,0,0
2023-07-28,0,0,0,0,0,0
2023-07-29,0,0,0,0,0,0
2023-07-30,0,0,0,0,0,0
2023-07-31,0,0,0,0,0,0
2023-08-01,0,0,0,0,0,0
2023-08-02,0,0,0,0,0,0
2023-08-03,0,0,0,0,0,0
2023-08-04,0,0,0,0,0,0
2023-08-05,0,0,0,0,0,0
2023-08-06,1,0,0,0,0,0
2023-08-07,0,0,0,0,0,0
2023-08-08,0,0,0,0,0,0
2023-08-09,0,0,0,0,0,0
2023-08-10,0,0,0,0,0,0
2023-08-11,0,0,0,0,0,0
2023-08-12,0,0,0,0,0,0
2023-08-13,1,2,0,1,1,1
2023-08-14,0,0,0,0,0,0
2023-08-15,0,0,0,0,0,0
2023-08-16,0,0,0,0,0,0
2023-08-17,0,0,0,0,0,0
2023-08-18,0,0,0,0,0,0
2023-08-19,0,0,0,0,0,0
2023-08-20,0,0,0,0,0,0
2023-08-21,0,0,0,0,0,0
2023-08-22,0,0,0,0,0,0
2023-08-23,0,0,0,0,0,0
2023-08-24,0,0,0,0,0,0
2023-08-25,0,0,0,0,0,0
2023-08-26,0,0,0,0,0,0
2023-08-27,0,0,0,0,0,0
2023-08-28,0,0,0,0,0,0
2023-08-29,0,0,0,0,0,0
2023-08-30,0,0,0,0,0,0
2023-08-31,0,0,0,0,0,0
2023-09-01,0,0,0,0,0,0
2023-09-02,0,0,0,0,0,0
2023-09-03,1,1,1,1,1,1
2023-09-04,0,0,0,0,0,0
2023-09-05,0,1,1,1,1,0
2023-09-06,0,0,0,0,0,0
2023-09-07,0,0,0,0,0,0
2023-09-08,0,0,0,0,0,0
2023-09-09,0,0,0,0,0,0
2023-09-10,0,0,0,0,0,0
2023-09-11,0,0,0,0,0,0
2023-09-12,0,0,0,0,0,0
2023-09-13,0,0,0,0,0,0
2023-09-14,0,0,0,0,0,0
2023-09-15,0,0,0,0,0,0
2023-09-16,0,0,0,0,0,0
2023-09-17,0,0,0,0,0,0
2023-09-18,0,0,0,0,0,0
2023-09-19,0,0,0,0,0,0
2023-09-20,0,0,0,0,0,0
2023-09-21,0,0,0,0,0,0
2023-09-22,0,0,0,0,0,0
2023-09-23,0,0,0,0,0,0
2023-09-24,0,0,0,0,0,0
2023-09-25,0,0,0,0,0,0
2023-09-26,0,0,0,0,0,0
2023-09-27,0,0,0,0,0,0
2023-09-28,0,0,0,0,0,0
2023-09-29,0,0,0,0,0,0
2023-09-30,0,0,0,0,0,0
2023-10-01,0,0,0,0,0,0
2023-10-02,0,0,0,0,0,0
2023-10-03,0,0,0,0,0,0
2023-10-04,0,0,0,0,0,0
2023-10-05,0,0,0,0,0,0
2023-10-06,0,0,0,0,0,0
2023-10-07,0,0,0,0,0,0
2023-10-08,0,0,0,0,0,0
2023-10-09,0,0,0,0,0,0
2023-10-10,0,0,0,0,0,0
2023-10-11,0,0,0,0,0,0
2023-10-12,0,0,0,0,0,0
2023-10-13,0,0,0,0,0,0
2023-10-14,0,0,0,0,0,0
2023-10-15,0,0,0,0,0,0
2023-10-16,0,0,0,0,0,0
2023-10-17,0,0,0,0,0,0
2023-10-18,0,0,0,0,0,0
2023-10-19,0,0,0,0,0,0
2023-10-20,0,0,0,0,0,0
2023-10-21,0,0,0,0,0,0
2023-10-22,0,0,0,0,0,0
2023-10-23,0,0,0,0,0,1
2023-10-24,1,1,1,1,1,1
2023-10-25,0,0,0,0,0,0
2023-10-26,0,1,0,0,0,0
2023-10-27,0,0,0,0,0,0
2023-10-28,0,0,0,0,0,0
2023-10-29,0,0,0,0,0,0
2023-10-30,0,0,0,0,0,0
2023-10-31,0,0,0,0,0,0
2023-11-01,0,0,0,0,0,0
2023-11-02,0,0,0,0,0,0
2023-11-03,0,0,0,0,0,0
2023-11-04,0,0,0,0,0,0
2023-11-05,1,1,1,1,1,1
2023-11-06,0,0,0,0,0,0
2023-11-07,0,0,0,0,0,0
2023-11-08,0,0,0,0,0,0
2023-11-09,0,1,0,0,0,0
2023-11-10,0,0,0,0,0,0
2023-11-11,1,0,0,1,0,0
2023-11-12,0,0,0,0,0,0
2023-11-13,0,0,0,0,0,0
2023-11-14,0,0,0,0,0,0
2023-11-15,0,0,0,0,0,0
2023-11-16,0,0,0,0,0,0
2023-11-17,0,0,0,0,0,0
2023-11-18,0,0,0,0,0,0
2023-11-19,0,0,0,0,0,0
2023-11-20,0,0,0,0,0,0
2023-11-21,0,0,0,0,0,0
2023-11-22,0,0,0,0,0,0
2023-11-23,0,0,0,0,0,0
2023-11-24,0,0,0,0,0,0
2023-11-25,0,0,0,0,0,0
2023-11-26,0,0,0,0,0,0
2023-11-27,0,0,0,0,0,0
2023-11-28,0,0,0,0,0,0
2023-11-29,1,0,0,0,0,0
2023-11-30,0,0,0,0,0,0
2023-12-01,0,0,0,0,0,0
2023-12-02,0,0,0,0,0,0
2023-12-03,0,0,0,0,0,0
2023-12-04,0,0,0,0,0,0
2023-12-05,0,0,0,0,1,0
2023-12-06,0,0,0,0,0,0
2023-12-07,0,0,0,0,1,0
2023-12-08,0,0,0,0,0,0
2023-12-09,0,0,0,0,0,0
2023-12-10,0,0,0,0,0,0
2023-12-11,0,0,0,1,0,0
2023-12-12,0,0,0,1,0,0
2023-12-13,0,0,0,0,0,0
2023-12-14,0,0,0,0,0,0
2023-12-15,0,0,0,0,0,0
2023-12-16,1,0,0,0,0,0
2023-12-17,0,0,0,0,0,0
2023-12-18,1,1,1,1,1,1
2023-12-19,0,0,0,0,0,0
2023-12-20,0,0,0,0,0,0
2023-12-21,0,0,0,1,0,0
2023-12-22,0,0,0,0,0,0
2023-12-23,0,0,0,0,0,0
2023-12-24,0,0,0,0,0,0
2023-12-25,0,0,0,0,0,0
2023-12-26,0,0,0,0,0,0
2023-12-27,0,0,0,0,0,0
2023-12-28,0,0,0,0,0,2
2023-12-29,0,0,0,0,0,4
2023-12-30,1,1,1,1,1,5
2023-12-31,0,0,0,0,0,3
2024-01-01,0,0,0,0,0,4
2024-01-02,0,0,0,0,0,3
2024-01-03,0,0,0,0,0,12
2024-01-04,0,0,0,0,0,8
2024-01-05,0,0,0,0,0,3
2024-01-06,0,0,0,0,0,4
2024-01-07,0,0,0,0,0,4
2024-01-08,0,0,0,0,0,2
2024-01-09,0,0,0,0,0,0
2024-01-10,0,0,0,0,0,0
2024-01-11,0,0,0,0,0,0
2024-01-12,0,0,0,0,0,0
2024-01-13,0,0,0,0,0,0
2024-01-14,0,0,0,0,0,1
2024-01-15,0,0,0,0,0,3
2024-01-16,1,1,2,1,0,0
2024-01-17,0,0,1,0,0,0
2024-01-18,0,0,1,0,0,0
2024-01-19,0,0,0,0,0,0
2024-01-20,0,0,0,0,0,0
2024-01-21,0,0,0,0,0,0
2024-01-22,0,0,0,0,0,0
2024-01-23,0,0,0,0,0,0
2024-01-24,0,0,0,0,0,0
2024-01-25,0,0,0,0,0,0
2024-01-26,0,0,0,0,0,0
2024-01-27,0,0,0,0,0,0
2024-01-28,0,0,0,0,1,0
2024-01-29,0,0,0,0,0,0
2024-01-30,0,0,0,0,0,0
2024-01-31,0,0,0,0,0,0
2024-02-01,0,0,0,0,0,0
2024-02-02,0,0,0,0,0,0
2024-02-03,0,0,0,0,0,0
2024-02-04,0,0,0,0,0,0
2024-02-05,0,0,0,0,0,0
2024-02-06,2,0,0,0,0,1
2024-02-07,0,0,0,0,0,0
2024-02-08,0,0,0,0,0,0
2024-02-09,0,0,0,0,0,0
2024-02-10,0,0,0,0,0,0
2024-02-11,0,0,0,0,0,0
2024-02-12,0,0,0,0,0,0
2024-02-13,0,0,0,0,0,0
2024-02-14,0,0,0,0,0,1
2024-02-15,0,0,0,0,0,0
2024-02-16,0,0,0,0,0,0
2024-02-17,0,0,0,0,0,1
2024-02-18,0,0,0,0,0,0
2024-02-19,0,0,0,0,0,0
2024-02-20,0,0,0,0,1,2
2024-02-21,0,0,0,0,0,0
2024-02-22,0,0,0,0,0,0
2024-02-23,0,0,0,0,0,0
2024-02-24,0,0,1,0,0,0
2024-02-25,0,0,0,0,0,0
2024-02-26,0,0,0,0,0,0
2024-02-27,0,0,0,0,0,0
2024-02-28,0,0,0,0,0,0
2024-02-29,0,0,0,0,0,0
2024-03-01,0,1,1,1,1,0
2024-03-02,0,0,0,0,0,0
2024-03-03,0,0,0,0,0,0
2024-03-04,0,0,0,0,0,0
2024-03-05,0,0,0,0,0,0
2024-03-06,1,0,0,0,0,0
2024-03-07,0,0,0,0,0,0
2024-03-08,0,0,0,0,0,0
2024-03-09,0,0,0,0,0,0
2024-03-10,0,0,0,0,0,0
2024-03-11,0,0,0,0,0,0
2024-03-12,0,0,0,0,0,0
2024-03-13,0,0,0,0,0,0
2024-03-14,0,0,0,0,0,0
2024-03-15,0,1,0,1,0,0
2024-03-16,0,0,0,0,0,1
2024-03-17,0,0,0,0,0,0
2024-03-18,0,0,0,0,0,0
2024-03-19,0,0,0,0,0,0
2024-03-20,0,0,0,0,0,0
2024-03-21,0,1,0,1,1,0
2024-03-22,0,0,1,0,1,1
2024-03-23,1,0,0,0,0,0
2024-03-24,1,0,2,0,0,0
2024-03-25,0,1,0,0,0,0
2024-03-26,0,0,0,1,0,0
2024-03-27,0,0,0,1,1,1
